#timestamp,LO_Frequency,Hit,StdDev 
1571364015.1,286047002.4,N
1571364016.0,286047002.4,N
1571364035.8,286047000.6,N
1571364055.6,286047000.0,N
1571364075.5,286047000.2,N
1571364095.3,286047002.3,N
1571364115.2,286047000.0,N
1571364135.9,286047000.6,N
1571364155.7,286046999.7,N
1571364175.6,286046999.8,N
1571364195.4,286047002.7,N
1571364215.2,286047001.5,N
1571364235.1,286047001.9,N
1571364236.0,286047001.9,N
1571364255.8,286047004.4,Y
1571364275.7,286047002.3,P
1571364295.5,286047001.5,P
1571364315.3,286047003.5,P
1571364335.2,286047001.6,N
1571364355.0,286047001.4,N
1571364355.9,286047001.4,N
1571364375.8,286047002.0,N
1571364395.6,286047002.3,Y
1571364415.4,286047000.4,P
1571364435.3,286047000.3,N
1571364455.1,286046999.8,N
1571364475.9,286046999.7,N
1571364495.7,286047002.1,N
1571364515.5,286047001.3,N
1571364535.4,286047001.3,N
1571364555.2,286047000.1,N
1571364575.0,286047004.1,Y
1571364575.9,286047004.1,P
1571364595.8,286047002.5,N
1571364615.6,286047002.6,N
1571364635.5,286047002.7,N
1571364655.3,286047000.3,N
1571364675.1,286046998.2,N
1571364695.9,286046998.6,N
1571364715.7,286046998.5,N
1571364735.6,286047000.6,N
1571364755.4,286046998.8,N
1571364775.2,286047000.4,N
1571364795.1,286047002.2,N
1571364796.0,286047002.2,N
1571364815.8,286047002.0,N
1571364835.6,286047000.9,N
1571364855.5,286047002.1,N
1571364875.3,286046999.7,N
1571364895.2,286047000.1,N
1571364915.9,286047000.1,N
1571364935.7,286047002.1,N
1571364955.6,286047001.8,N
1571364975.4,286047001.9,N
1571364995.2,286047002.5,N
1571365015.1,286047001.3,N
1571365016.0,286047001.3,N
1571365035.8,286047005.8,Y
1571365055.7,286047003.4,P
1571365075.5,286047003.7,P
1571365095.3,286047001.7,N
1571365115.2,286046999.8,N
1571365135.0,286047001.6,N
1571365135.9,286047001.6,N
1571365155.7,286047002.3,N
1571365175.6,286047002.2,N
1571365195.4,286047004.1,Y
1571365215.3,286047002.3,P
1571365235.1,286047000.4,N
1571365255.8,286046998.3,N
1571365275.7,286047002.7,N
1571365295.5,286047002.7,N
1571365315.4,286047002.8,N
1571365335.2,286047002.0,N
1571365355.0,286047004.4,Y
1571365355.9,286047004.4,P
1571365375.8,286047002.4,N
1571365395.6,286047002.6,N
1571365415.4,286047000.7,N
1571365435.3,286047001.2,N
1571365455.1,286047000.0,N
1571365475.9,286046999.9,N
1571365495.7,286046998.2,N
1571365515.5,286047000.5,N
1571365535.4,286047000.2,N
1571365555.2,286046999.9,N
1571365575.1,286047000.9,N
1571365576.0,286047000.9,N
1571365595.8,286047000.5,N
1571365615.6,286046999.7,N
1571365635.5,286047000.2,N
1571365655.3,286047002.2,N
1571365675.1,286047002.1,N
1571365695.9,286047002.5,N
1571365715.7,286047001.9,N
1571365735.6,286047004.3,Y
1571365755.4,286047002.1,P
1571365775.2,286047001.9,P
1571365795.1,286047001.9,P
1571365796.0,286047001.9,Y
1571365815.8,286046998.7,P
1571365835.7,286047001.1,N
1571365855.5,286047000.3,N
1571365875.3,286046998.7,N
1571365895.2,286046999.6,N
1571365915.9,286046999.1,N
1571365935.7,286046998.8,N
1571365955.6,286046996.5,Y
1571365975.4,286047000.5,P
1571365995.3,286047002.7,P
1571366015.1,286046998.3,N
1571366016.0,286046998.3,N
1571366035.8,286047000.6,N
1571366055.7,286046998.1,N
1571366075.5,286047000.9,N
1571366095.3,286046999.0,N
1571366115.2,286046996.9,N
1571366135.0,286046998.8,N
1571366135.9,286046998.8,N
1571366155.8,286046999.1,N
1571366175.6,286046998.1,N
1571366195.4,286047000.2,N
1571366215.3,286047002.4,N
1571366235.1,286047000.2,N
1571366255.9,286046998.8,N
1571366275.7,286046997.1,N
1571366295.5,286046999.5,N
1571366315.4,286046997.2,N
1571366335.2,286046996.6,N
1571366355.0,286046998.7,N
1571366355.9,286046998.7,N
1571366375.8,286046996.9,N
1571366395.6,286046999.5,N
1571366415.5,286046999.3,N
1571366435.3,286046997.8,N
1571366455.1,286046999.1,N
1571366475.9,286046998.1,N
1571366495.7,286046998.7,N
1571366515.5,286047000.7,N
1571366535.4,286046998.2,N
1571366555.2,286046998.5,N
1571366575.1,286046998.8,N
1571366576.0,286046998.8,N
1571366595.8,286046999.1,N
1571366615.6,286046998.1,N
1571366635.5,286046999.1,N
1571366655.3,286046998.9,N
1571366675.1,286047000.7,N
1571366695.9,286046998.6,N
1571366715.7,286046999.0,N
1571366735.6,286046998.5,N
1571366755.4,286047000.4,N
1571366775.2,286047000.9,N
1571366795.1,286047000.6,N
1571366796.0,286047000.6,N
1571366815.8,286047000.3,N
1571366835.7,286047002.6,N
1571366855.5,286047001.9,N
1571366875.3,286047002.6,N
1571366895.2,286047000.2,N
1571366915.0,286047002.2,N
1571366915.9,286047002.2,N
1571366935.7,286047002.8,N
1571366955.6,286047000.2,N
1571366975.4,286046999.7,N
1571366995.3,286047000.5,N
1571367015.1,286047000.4,N
1571367016.0,286047000.4,N
1571367035.8,286047000.8,N
1571367055.7,286046998.4,N
1571367075.5,286046998.5,N
1571367095.3,286047000.0,N
1571367115.2,286047000.0,N
1571367135.0,286047000.0,N
1571367135.9,286047000.0,N
1571367155.8,286047002.7,N
1571367175.6,286047004.2,Y
1571367195.4,286047004.4,P
1571367215.3,286047003.9,N
1571367235.1,286047003.1,N
1571367255.9,286047003.0,N
1571367275.7,286047005.5,Y
1571367295.5,286047000.8,P
1571367315.4,286046998.4,N
1571367335.2,286047000.1,N
1571367355.0,286047000.4,N
1571367355.9,286047000.4,N
1571367375.8,286047000.7,N
1571367395.6,286046998.3,N
1571367415.5,286047001.1,N
1571367435.3,286046998.9,N
1571367455.1,286047001.2,N
1571367475.9,286047000.8,N
1571367495.7,286047002.0,N
1571367515.5,286047001.5,N
1571367535.4,286046999.8,N
1571367555.2,286047004.1,Y
1571367575.1,286047004.0,P
1571367576.0,286047004.0,N
1571367595.8,286047001.7,N
